• Em Portugal
  • Lista de países
  • Para 7 dias
  • Temperatura da água
  • Mapas de satélite
  • Mapa do tempo
  • Widgets de tempo
  • user-avatar
    Iniciar Sessão

    Previsão horária em Pokhara

    Hoje, 22 Outubro, Domingo

    Tempo Temperatura Precipitação Vento Pressão Humidade
    00:00 +22°C° 0 mm 1 m/s 680 mmHg 90%
    01:00 +21°C° 0 mm 1 m/s 680 mmHg 89%
    02:00 +21°C° 0 mm 1 m/s 680 mmHg 88%
    03:00 +21°C° 0 mm 1 m/s 680 mmHg 87%
    04:00 +21°C° 0 mm 1 m/s 680 mmHg 85%
    05:00 +20°C° 0 mm 1 m/s 680 mmHg 82%
    06:00 +20°C° 0 mm 1 m/s 679 mmHg 81%
    07:00 +22°C° 0 mm 1 m/s 680 mmHg 77%
    08:00 +24°C° 0 mm 1 m/s 681 mmHg 73%
    09:00 +26°C° 0 mm 1 m/s 681 mmHg 69%
    10:00 +27°C° 0 mm 1 m/s 681 mmHg 67%
    11:00 +28°C° 0 mm 2 m/s 681 mmHg 65%
    12:00 +29°C° 0 mm 2 m/s 681 mmHg 64%
    13:00 +29°C° 0,2 mm 2 m/s 681 mmHg 65%
    14:00 +28°C° 0,2 mm 2 m/s 680 mmHg 67%
    15:00 +28°C° 0,2 mm 2 m/s 680 mmHg 69%
    16:00 +27°C° 0,2 mm 2 m/s 680 mmHg 76%
    17:00 +25°C° 0,2 mm 1 m/s 680 mmHg 83%
    18:00 +24°C° 0 mm 1 m/s 680 mmHg 90%
    19:00 +24°C° 0,2 mm 1 m/s 680 mmHg 91%
    20:00 +23°C° 0,2 mm 1 m/s 680 mmHg 91%
    21:00 +23°C° 0,2 mm 1 m/s 681 mmHg 92%
    22:00 +22°C° 0,1 mm 1 m/s 681 mmHg 91%
    23:00 +22°C° 0,1 mm 1 m/s 681 mmHg 89%

    Amanhã, 23 Outubro, Segunda-feira

    Tempo Temperatura Precipitação Vento Pressão Humidade
    00:00 +22°C° 0,1 mm 1 m/s 681 mmHg 88%
    01:00 +22°C° 0,1 mm 1 m/s 681 mmHg 87%
    02:00 +21°C° 0,1 mm 1 m/s 681 mmHg 85%
    03:00 +21°C° 0,1 mm 1 m/s 681 mmHg 84%
    04:00 +21°C° 0 mm 1 m/s 681 mmHg 81%
    05:00 +20°C° 0 mm 1 m/s 681 mmHg 79%
    06:00 +20°C° 0 mm 1 m/s 681 mmHg 77%
    07:00 +22°C° 0 mm 1 m/s 682 mmHg 70%
    08:00 +23°C° 0 mm 1 m/s 682 mmHg 63%
    09:00 +25°C° 0 mm 2 m/s 683 mmHg 55%
    10:00 +26°C° 0 mm 2 m/s 683 mmHg 52%
    11:00 +28°C° 0 mm 2 m/s 683 mmHg 48%
    12:00 +29°C° 0 mm 2 m/s 683 mmHg 44%
    13:00 +29°C° 0 mm 2 m/s 682 mmHg 45%
    14:00 +28°C° 0 mm 2 m/s 682 mmHg 46%
    15:00 +28°C° 0 mm 2 m/s 681 mmHg 47%
    16:00 +26°C° 0 mm 2 m/s 681 mmHg 55%
    17:00 +24°C° 0 mm 1 m/s 681 mmHg 62%
    18:00 +22°C° 0 mm 1 m/s 681 mmHg 69%
    19:00 +21°C° 0 mm 1 m/s 682 mmHg 68%
    20:00 +21°C° 0 mm 1 m/s 682 mmHg 67%
    21:00 +20°C° 0 mm 1 m/s 683 mmHg 66%
    22:00 +20°C° 0 mm 1 m/s 683 mmHg 64%
    23:00 +19°C° 0 mm 1 m/s 683 mmHg 63%

    Depois de amanhã, 24 Outubro, Terça-feira

    Tempo Temperatura Precipitação Vento Pressão Humidade
    00:00 +19°C° 0 mm 1 m/s 683 mmHg 61%
    01:00 +18°C° 0 mm 2 m/s 683 mmHg 59%
    02:00 +17°C° 0 mm 2 m/s 682 mmHg 57%
    03:00 +17°C° 0 mm 2 m/s 682 mmHg 56%
    04:00 +17°C° 0 mm 2 m/s 682 mmHg 55%
    05:00 +17°C° 0 mm 2 m/s 682 mmHg 54%
    06:00 +17°C° 0 mm 2 m/s 683 mmHg 53%
    07:00 +19°C° 0 mm 2 m/s 683 mmHg 51%
    08:00 +21°C° 0 mm 2 m/s 684 mmHg 49%
    09:00 +23°C° 0 mm 2 m/s 685 mmHg 47%
    10:00 +25°C° 0 mm 2 m/s 685 mmHg 46%
    11:00 +26°C° 0 mm 2 m/s 685 mmHg 44%
    12:00 +28°C° 0 mm 2 m/s 685 mmHg 43%
    13:00 +27°C° 0,1 mm 2 m/s 684 mmHg 44%
    14:00 +27°C° 0,1 mm 2 m/s 683 mmHg 46%
    15:00 +26°C° 0,1 mm 2 m/s 683 mmHg 47%
    16:00 +24°C° 0,1 mm 2 m/s 683 mmHg 54%
    17:00 +22°C° 0,1 mm 1 m/s 682 mmHg 60%
    18:00 +20°C° 0,1 mm 1 m/s 682 mmHg 67%
    19:00 +20°C° 0 mm 1 m/s 683 mmHg 67%
    20:00 +19°C° 0 mm 1 m/s 683 mmHg 66%
    21:00 +19°C° 0 mm 1 m/s 684 mmHg 66%
    22:00 +19°C° 0 mm 1 m/s 684 mmHg 65%
    23:00 +18°C° 0 mm 1 m/s 684 mmHg 64%

    25 Outubro, Quarta-feira

    Tempo Temperatura Precipitação Vento Pressão Humidade
    00:00 +18°C° 0 mm 1 m/s 684 mmHg 64%
    01:00 +18°C° 0 mm 1 m/s 684 mmHg 63%
    02:00 +18°C° 0 mm 1 m/s 683 mmHg 62%
    03:00 +18°C° 0 mm 1 m/s 683 mmHg 61%
    04:00 +18°C° 0 mm 1 m/s 684 mmHg 60%
    05:00 +16°C° 0 mm 1 m/s 684 mmHg 59%
    06:00 +16°C° 0 mm 1 m/s 684 mmHg 58%
    07:00 +19°C° 0 mm 1 m/s 685 mmHg 54%
    08:00 +21°C° 0 mm 1 m/s 686 mmHg 51%
    09:00 +23°C° 0 mm 1 m/s 686 mmHg 47%
    10:00 +24°C° 0 mm 2 m/s 686 mmHg 46%
    11:00 +26°C° 0 mm 2 m/s 686 mmHg 45%
    12:00 +27°C° 0 mm 2 m/s 686 mmHg 44%
    13:00 +27°C° 0 mm 2 m/s 685 mmHg 46%
    14:00 +27°C° 0 mm 2 m/s 685 mmHg 48%
    15:00 +26°C° 0 mm 2 m/s 684 mmHg 50%
    16:00 +24°C° 0 mm 2 m/s 684 mmHg 57%
    17:00 +22°C° 0 mm 1 m/s 684 mmHg 64%
    18:00 +20°C° 0 mm 1 m/s 683 mmHg 71%
    19:00 +20°C° 0 mm 1 m/s 684 mmHg 69%
    20:00 +19°C° 0 mm 1 m/s 684 mmHg 68%
    21:00 +19°C° 0 mm 1 m/s 685 mmHg 66%
    22:00 +19°C° 0 mm 1 m/s 685 mmHg 64%
    23:00 +19°C° 0 mm 1 m/s 685 mmHg 62%

    26 Outubro, Quinta-feira

    Tempo Temperatura Precipitação Vento Pressão Humidade
    00:00 +18°C° 0 mm 1 m/s 684 mmHg 60%
    01:00 +18°C° 0 mm 1 m/s 684 mmHg 58%
    02:00 +18°C° 0 mm 1 m/s 684 mmHg 57%
    03:00 +18°C° 0 mm 1 m/s 684 mmHg 56%
    04:00 +18°C° 0 mm 1 m/s 684 mmHg 55%
    05:00 +18°C° 0 mm 1 m/s 684 mmHg 54%
    06:00 +18°C° 0 mm 1 m/s 684 mmHg 54%
    07:00 +20°C° 0 mm 1 m/s 685 mmHg 52%
    08:00 +22°C° 0 mm 1 m/s 686 mmHg 50%
    09:00 +24°C° 0 mm 1 m/s 687 mmHg 49%
    10:00 +25°C° 0 mm 1 m/s 686 mmHg 49%
    11:00 +26°C° 0 mm 2 m/s 686 mmHg 49%
    12:00 +27°C° 0 mm 2 m/s 686 mmHg 49%
    13:00 +27°C° 0 mm 2 m/s 685 mmHg 51%
    14:00 +27°C° 0 mm 2 m/s 685 mmHg 53%
    15:00 +26°C° 0 mm 2 m/s 684 mmHg 55%
    16:00 +25°C° 0 mm 2 m/s 684 mmHg 62%
    17:00 +23°C° 0 mm 1 m/s 684 mmHg 70%
    18:00 +21°C° 0 mm 1 m/s 684 mmHg 78%
    19:00 +20°C° 0 mm 1 m/s 684 mmHg 78%
    20:00 +20°C° 0 mm 1 m/s 685 mmHg 78%
    21:00 +19°C° 0 mm 1 m/s 685 mmHg 79%
    22:00 +19°C° 0 mm 1 m/s 685 mmHg 78%
    23:00 +19°C° 0 mm 1 m/s 685 mmHg 77%

    27 Outubro, Sexta-feira

    Tempo Temperatura Precipitação Vento Pressão Humidade
    00:00 +19°C° 0 mm 1 m/s 685 mmHg 76%
    01:00 +19°C° 0 mm 1 m/s 684 mmHg 74%
    02:00 +18°C° 0 mm 1 m/s 684 mmHg 72%
    03:00 +18°C° 0 mm 1 m/s 683 mmHg 70%
    04:00 +18°C° 0 mm 1 m/s 683 mmHg 68%
    05:00 +18°C° 0 mm 1 m/s 683 mmHg 66%
    06:00 +18°C° 0 mm 1 m/s 684 mmHg 64%
    07:00 +20°C° 0 mm 1 m/s 684 mmHg 59%
    08:00 +22°C° 0 mm 1 m/s 685 mmHg 53%
    09:00 +24°C° 0 mm 1 m/s 686 mmHg 48%
    10:00 +25°C° 0 mm 1 m/s 685 mmHg 45%
    11:00 +26°C° 0 mm 2 m/s 685 mmHg 43%
    12:00 +27°C° 0 mm 3 m/s 685 mmHg 40%
    13:00 +27°C° 0 mm 3 m/s 684 mmHg 43%
    14:00 +27°C° 0 mm 3 m/s 684 mmHg 45%
    15:00 +27°C° 0 mm 3 m/s 683 mmHg 48%
    16:00 +24°C° 0 mm 2 m/s 683 mmHg 57%
    17:00 +22°C° 0 mm 1 m/s 683 mmHg 67%
    18:00 +20°C° 0 mm 1 m/s 683 mmHg 76%
    19:00 +20°C° 0 mm 1 m/s 683 mmHg 76%
    20:00 +19°C° 0 mm 1 m/s 684 mmHg 76%
    21:00 +19°C° 0 mm 1 m/s 684 mmHg 75%
    22:00 +19°C° 0 mm 1 m/s 684 mmHg 73%
    23:00 +19°C° 0 mm 1 m/s 684 mmHg 71%
    Mostrar mais